Regional Weather Roundup
Issued by NWS Bismarck, ND

Home | Current Version | Previous Version | Text Only | Print | Product List | Glossary On
Versions: 1 2 3 4 5 6 7 8 9 10 11 12 13 14 15 16 17 18 19 20 21 22 23 24 25 26 27 28 29 30 31 32 33 34 35 36 37 38 39 40 41 42 43 44 45 46 47 48 49 50
000
ASUS43 KBIS 281620
RWRBIS

NWR BROADCAST TEXT
NATIONAL WEATHER SERVICE BISMARCK ND
1000 AM CST WED JAN 28 2015

NOTE: "FAIR" INDICATES FEW OR NO CLOUDS BELOW 12,000 FEET WITH NO
SIGNIFICANT WEATHER AND/OR OBSTRUCTIONS TO VISIBILITY.


CITY           SKY/WX    TMP DP  RH WIND       PRES   REMARKS
WILLISTON      CLOUDY    31  30  96 N14       29.86R FOG
MINOT          FOG       29  28  96 NW8       29.79R VSB 1/4
MINOT AFB      FRZ DRZL  30  30 100 N8        29.81R FOG
BISMARCK       PTSUNNY   33  31  92 W5        29.76R
DICKINSON      CLOUDY    43  30  60 W18       29.78R
GARRISON         N/A     28  27  96 N8        29.76R WCI  20
HETTINGER ARPT CLOUDY    45  31  58 W14       29.81R
JAMESTOWN      FOG       30  30 100 S6        29.73R VSB 1/4
BEACH          FAIR      41  32  70 W22       29.85R
CARRINGTON     FOG       30  30 100 MISG      29.75R VSB 1/2
CROSBY         FOG       28  28 100 N10       29.89R VSB 3/4 WCI  19
HARVEY         FOG       27  27 100 NW8       29.77R VSB<1/4 WCI  18
HAZEN          FAIR      32  32 100 W3        29.78R
LINTON         FAIR      30  30 100 S3        29.74S
MANDAN         FAIR      36  32  87 NW8       29.75R
OAKES            N/A     32  32 100 CALM      29.75R FOG
RUGBY          FOG       32  32 100 NE8       29.77R VSB 1/2
STANLEY        FOG       27  27 100 N9        29.81R VSB 3/4 WCI  17
TIOGA          FOG       27  27 100 N14       29.85R VSB 1/2 WCI  15
WATFORD CITY   FAIR      37  32  81 NW12      29.80R
$$

CITY           SKY/WX    TMP DP  RH WIND       PRES   REMARKS
GRAND FORKS    CLOUDY    33  32  96 S10       29.78F FOG
GRAND FORKS AF FOG       32  32 100 S9        29.77F VSB 3/4
DEVILS LAKE    CLOUDY    30  30 100 N3        29.75R
FARGO          CLOUDY    34  31  88 S16G30    29.78F FOG
CANDO          FOG       32  32 100 NE8       29.77R VSB 1/2
CAVALIER       FOG       32  32 100 E6        29.78F VSB<1/4
GWINNER        CLOUDY    32  32 100 CALM      29.76R VSB 1/4
LANGDON        FOG       32  32 100 N7        29.76R VSB<1/4
ROLLA          FOG       28  28 100 N15       29.78R VSB 1/4 WCI  17
WALHALLA       FOG       32  32 100 NE3       29.80R VSB 1/4
$$

CITY           SKY/WX    TMP DP  RH WIND       PRES   REMARKS
ABERDEEN       PTSUNNY   35  32  88 SE5       29.73F
MOBRIDGE       PTSUNNY   35  31  85 NW3       29.73R
BUFFALO          N/A     44  30  57 W15       29.80R
RAPID CITY     CLOUDY    55  28  35 NW21      29.84R
GLASGOW        CLOUDY    33  30  88 NW20G29   29.99R FOG
SIDNEY         PTSUNNY   39  32  75 NW10G16   29.91R
WOLF POINT     CLOUDY    36  30  79 NW14G25   29.96R
GLENDIVE       PTSUNNY   43  30  61 W18G26    29.91R
MILES CITY     CLOUDY    43  30  60 NW15      29.94R
BAKER          CLOUDY    39  30  70 W15       29.88R
$$

CITY           SKY/WX    TMP DP  RH WIND       PRES   REMARKS
BILLINGS       PTSUNNY   49  27  42 NW15      30.07R
GREAT FALLS    CLEAR     38  27  64 NW3       30.16R
REGINA         LGT SNOW  25  25 100 NW10      29.99R VSB 1   WCI  15
ESTEVAN        FRZ DRZL N/A N/A N/A N13         N/A  FOG
$$



USA.gov is the U.S. government's official web portal to all federal, state and local government web resources and services.